[[{"header":{"parameterUnit":"m.s-1","parameterCategory":1,"la1":30.2991,"la2":30.254,"lo1":-89.0895,"lo2":-89.0444,"dy":0.0017,"dx":0.0017,"nx":28,"ny":28,"refTime":"2025-09-14T21:00:00:Z","depth":0,"parameterNumber":2,"parameterNumberName":"U-component_of_WINDS"},"data":[0,0,0,0,0,0,0,0,0,0,0,0,0,0,0,0,0,0,0,0,0,0,0,0,0,0,0,0,0,0,0,0,0,0,0,0,0,0,0,0,0,0,0,0,0,0,0,0,0,0,0,0,0,0,0,0,0,0,-1.0126,-1.0128,0,-1.0231,-1.0232,-1.0234,-1.0263,-1.0263,-1.0262,-1.0262,-1.0366,-1.0369,-1.0372,0,0,0,0,0,0,0,0,0,0,0,0,0,-0.995,-0.9953,-1.0126,-1.0128,-1.0129,-1.0231,-1.0232,-1.0234,-1.0264,-1.0263,-1.0262,-1.0261,-1.0365,-1.0369,-1.0373,0,0,0,0,0,0,0,0,0,0,0,0,0,-1.0038,-0.9954,-1.0126,-1.0156,-1.016,-1.0231,-1.0233,-1.0234,-1.0264,-1.0263,-1.0262,-1.0261,-1.0363,-1.0368,-1.0373,-1.0421,0,0,-1.0388,-1.039,0,0,0,0,0,0,0,0,-1.0033,-1.0044,-1.015,-1.0154,-1.0158,-1.0233,-1.0209,-1.0297,-1.0264,-1.0224,-1.0262,-1.0261,-1.0322,-1.0331,-1.0352,-1.0426,-1.043,-1.0389,-1.0392,-1.0394,-1.0395,0,0,0,0,0,0,0,-1.0027,-1.004,-1.0168,-1.0152,-1.0157,-1.0164,-1.0175,-1.0225,-1.0277,-1.0228,-1.023,-1.0242,-1.0324,-1.0347,-1.0355,-1.0432,-1.0389,-1.0393,-1.0396,-1.0398,-1.0551,-1.0552,0,0,0,0,0,0,-1.0016,-1.0035,-1.0164,-1.0171,-1.0092,-1.0168,-1.0181,-1.021,-1.0276,-1.0285,-1.0243,-1.0243,-1.0339,-1.0349,-1.0358,-1.042,-1.0394,-1.0399,-1.0401,-1.055,-1.0551,-1.0552,0,0,0,0,0,0,-1.0012,-1.0027,-1.016,-1.0104,-1.0121,-1.0172,-1.0205,-1.0213,-1.0236,-1.0288,-1.0297,-1.0257,-1.0339,-1.0351,-1.0406,-1.0423,-1.0401,-1.0405,-1.0549,-1.055,-1.0552,-1.0541,0,0,0,0,0,0,-1.0007,-1.0026,-1.0044,-1.0104,-1.0124,-1.0206,-1.0206,-1.0215,-1.0244,-1.0246,-1.0303,-1.0312,-1.0339,-1.0398,-1.0411,-1.043,-1.0409,-1.0547,-1.0549,-1.0551,-1.054,-1.0542,-1.0544,0,0,0,0,0,-1.0,-1.0036,-1.0045,-1.0061,-1.0149,-1.0207,-1.0219,-1.025,-1.0246,-1.0265,-1.0299,-1.031,-1.042,-1.0403,-1.0418,-1.0439,-1.0546,-1.0549,-1.0551,-1.0539,-1.0542,-1.0544,0,0,0,0,0,0,-0.9976,-1.0045,-1.0055,-1.0111,-1.0153,-1.0212,-1.0237,-1.0251,-1.0295,-1.0294,-1.033,-1.0343,-1.0395,-1.0422,-1.0403,-1.0489,-1.0483,-1.0489,-1.0469,-1.0472,-1.0474,-1.0466,-1.0413,0,0,0,0,0,-0.9978,-1.002,-1.0077,-1.0121,-1.0142,-1.0186,-1.0212,-1.0233,-1.0278,-1.0295,-1.0333,-1.0375,-1.0419,-1.0447,-1.049,-1.0544,-1.0557,-1.0566,-1.0568,-1.0569,-1.0573,-1.0605,-1.061,-1.0561,-1.0561,-1.056,0,0,-0.9981,-1.0023,-1.0047,-1.0118,-1.0152,-1.0195,-1.0201,-1.0245,-1.0277,-1.0302,-1.0356,-1.0385,-1.0434,-1.0489,-1.0515,-1.0513,-1.059,-1.0572,-1.0573,-1.0577,-1.0608,-1.0613,-1.0617,-1.0562,-1.0562,-1.0562,0,0,-1.0008,-1.0044,-1.0086,-1.0121,-1.0175,-1.0204,-1.0214,-1.0271,-1.0292,-1.0347,-1.0367,-1.0405,-1.048,-1.0514,-1.0542,-1.0584,-1.0596,-1.0597,-1.0607,-1.0637,-1.0641,-1.0645,-1.066,-1.0665,-1.0601,-1.0601,-1.0601,0,-1.0005,-1.007,-1.0105,-1.0149,-1.018,-1.0206,-1.0248,-1.028,-1.0344,-1.0365,-1.0362,-1.0458,-1.0493,-1.0557,-1.0567,-1.0588,-1.0601,-1.059,-1.0638,-1.0642,-1.0646,-1.0661,-1.0667,-1.0601,-1.0601,-1.0601,-1.0601,0,-1.0064,-1.011,-1.0136,-1.02,-1.0233,-1.0276,-1.0317,-1.0347,-1.0365,-1.0394,-1.045,-1.0494,-1.0547,-1.0563,-1.0581,-1.063,-1.0627,-1.0631,-1.0626,-1.065,-1.0665,-1.0671,-1.0601,-1.0601,-1.0601,-1.0601,0,0,-1.0078,-1.0161,-1.017,-1.02,-1.0262,-1.0297,-1.0342,-1.0395,-1.042,-1.0464,-1.0502,-1.0565,-1.057,-1.0601,-1.0623,-1.0649,-1.0681,-1.065,-1.0652,-1.0655,-1.0738,-1.0735,-1.0741,-1.069,-1.0691,-1.0692,-1.0734,0,-1.0113,-1.0195,-1.0228,-1.0293,-1.0336,-1.0362,-1.0401,-1.0443,-1.0472,-1.0512,-1.0544,-1.0588,-1.0591,-1.061,-1.0637,-1.0671,-1.0698,-1.0669,-1.0725,-1.0727,-1.0712,-1.0749,-1.0746,-1.0783,-1.074,-1.0741,-1.0742,0,-1.0165,-1.0211,-1.0282,-1.034,-1.0359,-1.0393,-1.0445,-1.0483,-1.0532,-1.0551,-1.0587,-1.0607,-1.0655,-1.0647,-1.0712,-1.0692,-1.0717,-1.0737,-1.0739,-1.0745,-1.0736,-1.0756,-1.0796,-1.0802,-1.0752,-1.0751,-1.075,0,-1.0169,-1.0248,-1.0301,-1.0326,-1.0394,-1.0418,-1.0447,-1.0495,-1.0525,-1.0571,-1.0591,-1.064,-1.0667,-1.0705,-1.0739,-1.073,-1.0801,-1.0796,-1.0818,-1.0817,-1.0832,-1.083,-1.0876,-1.0848,-1.0848,-1.0848,-1.0848,0,-1.0205,-1.0247,-1.0304,-1.0336,-1.0385,-1.0422,-1.0468,-1.05,-1.0542,-1.0581,-1.0606,-1.0641,-1.0683,-1.0724,-1.0751,-1.0801,-1.0813,-1.083,-1.0836,-1.0828,-1.0825,-1.0844,-1.0842,-1.0849,-1.0849,-1.0849,-1.0848,0,-1.0217,-1.0257,-1.0316,-1.0377,-1.0394,-1.0426,-1.0478,-1.0511,-1.0541,-1.059,-1.0604,-1.0652,-1.0701,-1.0739,-1.0802,-1.082,-1.0874,-1.0881,-1.0858,-1.0861,-1.0882,-1.0879,-1.0941,-1.0951,-1.0916,-1.0916,-1.0916,0,-1.0238,-1.0271,-1.0336,-1.0365,-1.0394,-1.0439,-1.0471,-1.051,-1.0541,-1.06,-1.0625,-1.0677,-1.072,-1.0798,-1.0838,-1.0887,-1.0895,-1.0913,-1.0902,-1.0893,-1.0896,-1.0893,-1.0897,-1.0915,-1.0915,-1.0915,-1.0915,0,-1.027,-1.0289,-1.0334,-1.0386,-1.0424,-1.0467,-1.051,-1.0532,-1.0578,-1.0612,-1.0664,-1.0698,-1.0764,-1.0815,-1.0869,-1.0898,-1.0914,-1.0918,-1.0926,-1.0918,-1.0903,-1.0912,-1.0862,-1.0917,-1.0916,-1.0916,-1.0916,-1.0916,-1.0287,-1.0319,-1.037,-1.042,-1.0457,-1.0497,-1.0531,-1.0567,-1.0611,-1.0669,-1.0689,-1.0742,-1.079,-1.0864,-1.0894,-1.0936,-1.0936,-1.0947,-1.095,-1.0952,-1.0952,-1.0897,-1.0946,-1.0946,-1.0946,-1.0946,-1.0946,0,-1.0321,-1.0356,-1.0401,-1.0462,-1.0502,-1.0515,-1.0564,-1.0596,-1.0643,-1.0687,-1.073,-1.079,-1.084,-1.0884,-1.0936,-1.0961,-1.097,-1.0973,-1.0972,-1.0978,-1.0949,-1.0937,-1.0966,-1.0966,-1.0966,-1.0966,-1.0966,-1.0966,-1.0343,-1.0397,-1.0422,-1.0495,-1.0529,-1.0583,-1.061,-1.0647,-1.0683,-1.0749,-1.0791,-1.0821,-1.0865,-1.092,-1.0967,-1.0979,-1.0996,-1.0998,-1.1012,-1.0983,-1.098,-1.0978,-1.0967,-1.1002,-1.1002,-1.1038,-1.1038,-1.1038]},{"header":{"parameterUnit":"m.s-1","parameterCategory":1,"la1":30.2991,"la2":30.254,"lo1":-89.0895,"lo2":-89.0444,"dy":0.0017,"dx":0.0017,"nx":28,"ny":28,"refTime":"2025-09-14T21:00:00:Z","depth":0,"parameterNumber":3,"parameterNumberName":"V-component_of_WINDS"},"data":[0,0,0,0,0,0,0,0,0,0,0,0,0,0,0,0,0,0,0,0,0,0,0,0,0,0,0,0,0,0,0,0,0,0,0,0,0,0,0,0,0,0,0,0,0,0,0,0,0,0,0,0,0,0,0,0,0,0,1.2108,1.2107,0,1.1984,1.1982,1.1981,1.1865,1.1864,1.1862,1.1861,1.173,1.1727,1.1725,0,0,0,0,0,0,0,0,0,0,0,0,0,1.2243,1.2241,1.2108,1.2107,1.2105,1.1984,1.1982,1.198,1.1865,1.1864,1.1862,1.186,1.173,1.1728,1.1725,0,0,0,0,0,0,0,0,0,0,0,0,0,1.2158,1.2241,1.2108,1.2033,1.2025,1.1984,1.1982,1.198,1.1866,1.1864,1.1862,1.186,1.1731,1.1728,1.1725,1.1747,0,0,1.1715,1.1713,0,0,0,0,0,0,0,0,1.2163,1.2153,1.2046,1.2038,1.2029,1.1938,1.1981,1.1902,1.1866,1.1926,1.1861,1.1859,1.18,1.1791,1.1772,1.1741,1.1735,1.1714,1.1712,1.1711,1.171,0,0,0,0,0,0,0,1.2169,1.2158,1.2059,1.2044,1.2034,1.2005,1.199,1.1966,1.1876,1.1921,1.1912,1.1899,1.1795,1.1776,1.1768,1.1733,1.1715,1.1712,1.171,1.1708,1.1713,1.1715,0,0,0,0,0,0,1.2187,1.2164,1.2063,1.2055,1.2093,1.2004,1.1988,1.1969,1.1876,1.186,1.1901,1.1894,1.1782,1.1772,1.1763,1.1783,1.1711,1.1708,1.1706,1.1711,1.1714,1.1716,0,0,0,0,0,0,1.219,1.2179,1.2068,1.2107,1.2091,1.2004,1.1984,1.1968,1.1948,1.1862,1.1845,1.1898,1.178,1.1768,1.1752,1.1777,1.1707,1.1704,1.1709,1.1712,1.1715,1.1822,0,0,0,0,0,0,1.2195,1.2181,1.2189,1.2108,1.2089,1.206,1.1985,1.1967,1.1943,1.1933,1.1854,1.1839,1.1778,1.1758,1.1749,1.1771,1.1701,1.1706,1.171,1.1714,1.1816,1.1829,1.184,0,0,0,0,0,1.22,1.2224,1.219,1.2179,1.2098,1.2061,1.205,1.1981,1.1946,1.1953,1.1897,1.1841,1.1776,1.1757,1.1746,1.1768,1.1704,1.1709,1.1713,1.1811,1.1826,1.1839,0,0,0,0,0,0,1.2308,1.2212,1.2173,1.2172,1.2126,1.2042,1.2048,1.1999,1.1961,1.1953,1.1867,1.185,1.1844,1.1804,1.1785,1.1784,1.1732,1.1735,1.181,1.1824,1.1836,1.1845,1.1698,0,0,0,0,0,1.2332,1.2312,1.2228,1.2235,1.2214,1.2136,1.2117,1.2068,1.2016,1.1996,1.1939,1.189,1.1858,1.1839,1.1805,1.1811,1.1791,1.182,1.1832,1.1842,1.1845,1.1844,1.1856,1.1731,1.1731,1.1731,0,0,1.2381,1.2326,1.2318,1.2255,1.2214,1.2194,1.212,1.2102,1.2086,1.1992,1.1974,1.1932,1.1871,1.1866,1.1861,1.1833,1.1875,1.1848,1.1856,1.1854,1.185,1.1862,1.1873,1.1735,1.1734,1.1733,0,0,1.2459,1.2416,1.2417,1.2377,1.2316,1.2264,1.2265,1.2189,1.2157,1.2138,1.2067,1.2047,1.1994,1.1954,1.1927,1.1992,1.1939,1.1983,1.2044,1.2044,1.2054,1.2063,1.2085,1.2094,1.1987,1.1987,1.1987,0,1.2527,1.2495,1.2423,1.2409,1.2384,1.23,1.23,1.2265,1.2195,1.2179,1.2149,1.2082,1.2035,1.2019,1.2036,1.2017,1.2014,1.1991,1.2059,1.2067,1.2073,1.2094,1.2103,1.1993,1.1992,1.1992,1.1991,0,1.2581,1.256,1.2568,1.2505,1.248,1.2473,1.2399,1.2383,1.2336,1.2287,1.2269,1.2211,1.2163,1.2156,1.211,1.2134,1.2119,1.2075,1.2021,1.2092,1.211,1.2117,1.2001,1.1999,1.1997,1.1996,0,0,1.2722,1.2621,1.2624,1.2595,1.2522,1.2504,1.2494,1.2449,1.2436,1.2392,1.238,1.2339,1.2298,1.2267,1.2216,1.2217,1.2272,1.2173,1.217,1.2193,1.2295,1.2327,1.2338,1.2237,1.2238,1.2239,1.2299,0,1.2787,1.2764,1.27,1.2696,1.2676,1.2597,1.2588,1.2542,1.2497,1.2472,1.2421,1.2393,1.2342,1.2323,1.2321,1.2266,1.2291,1.2261,1.2224,1.2224,1.2241,1.2347,1.2381,1.244,1.2306,1.2307,1.2308,0,1.2859,1.2822,1.2817,1.2746,1.2735,1.2728,1.2682,1.266,1.2607,1.2573,1.2541,1.2484,1.2468,1.2419,1.2395,1.2376,1.2358,1.2329,1.2329,1.2322,1.2269,1.2341,1.2458,1.2467,1.2318,1.2318,1.2317,0,1.2962,1.291,1.29,1.2877,1.2795,1.2792,1.2757,1.2701,1.2679,1.2639,1.2623,1.2582,1.2559,1.2527,1.2461,1.2432,1.2444,1.239,1.2415,1.2417,1.242,1.242,1.2534,1.2411,1.241,1.241,1.241,0,1.3041,1.304,1.2945,1.2939,1.2937,1.2862,1.2862,1.2819,1.2771,1.2754,1.2684,1.267,1.2584,1.256,1.2508,1.2496,1.2486,1.2458,1.2444,1.2463,1.2467,1.2449,1.2442,1.2412,1.2412,1.2412,1.2411,0,1.3153,1.309,1.3074,1.2998,1.2979,1.298,1.2914,1.2905,1.2857,1.2837,1.2828,1.2751,1.2719,1.265,1.2599,1.2564,1.2565,1.254,1.2583,1.2574,1.2603,1.2601,1.2708,1.2718,1.259,1.2591,1.2592,0,1.3207,1.3205,1.313,1.3115,1.3083,1.306,1.3037,1.2964,1.2943,1.2883,1.2881,1.2844,1.2811,1.2763,1.2702,1.2663,1.2636,1.2676,1.263,1.265,1.2636,1.2636,1.2635,1.2686,1.2688,1.269,1.2691,0,1.3309,1.3278,1.3249,1.3209,1.3185,1.315,1.311,1.3102,1.3019,1.3,1.2967,1.2942,1.2891,1.2854,1.2807,1.2769,1.2716,1.2707,1.271,1.2729,1.2754,1.274,1.261,1.2704,1.2702,1.2701,1.2701,1.27,1.3393,1.3388,1.3334,1.3304,1.3268,1.3233,1.3221,1.3172,1.3144,1.3098,1.3057,1.3028,1.2975,1.2905,1.2872,1.2848,1.2821,1.2827,1.2828,1.283,1.2838,1.276,1.2839,1.2838,1.2838,1.2837,1.2837,0,1.349,1.3452,1.3426,1.3374,1.3351,1.3305,1.326,1.3243,1.3219,1.3175,1.3144,1.3107,1.3072,1.301,1.2969,1.2962,1.2937,1.2954,1.2953,1.2945,1.2864,1.2865,1.2975,1.2975,1.2975,1.2975,1.2975,1.2975,1.3538,1.3527,1.349,1.3461,1.3422,1.3395,1.3373,1.3341,1.3305,1.3267,1.3239,1.3199,1.3147,1.3102,1.3068,1.305,1.3038,1.3063,1.3038,1.2963,1.295,1.2938,1.2938,1.3062,1.3062,1.312,1.312,1.3121]}]]